Location: Dissen
(37.5842°N, 89.8420°W)
Time: 11:34:11
(UTC+00:00)

ISS - Visible Passes

Search period start: 11 October 2024 00:00
Search period end: 21 October 2024 00:00
Orbit: 411 x 424 km, 51.6° (Epoch: 11 October)

Date Brightness Start Highest point End Pass type
(mag) Time Alt. Az. Time Alt. Az. Time Alt. Az.
15 Oct -1.6 11:17:39 10° S 11:20:28 26° SE 11:23:18 10° ENE visible
16 Oct -0.9 10:29:55 10° SSE 10:31:47 14° SE 10:33:38 10° E visible
17 Oct -3.8 11:15:48 10° SW 11:19:07 85° SE 11:22:26 10° NE visible
18 Oct -2.8 10:29:23 38° SSE 10:29:58 43° SE 10:33:08 10° ENE visible
19 Oct -0.5 09:42:40 14° E 09:42:40 14° E 09:43:24 10° ENE visible
19 Oct -2.9 11:15:33 20° W 11:17:15 34° NNW 11:20:20 10° NE visible
20 Oct -2.9 10:28:30 42° NNE 10:28:30 42° NNE 10:30:58 10° NE visible
